AFL3500 ULLI-UWGG

Flight info

Callsign AFL3500
Flight time N/A
Altitude 35000
Route SUGIN1A SUGIN T873 NIRGI T73 DESUD P164 GAKLU N869 RANTO T540 POGAS T747 OLATU T784 ADMUL L94 USTOK USTOK2P
Aircraft A321/M-SDE3FGHIRWY/LB1

Departure

Time 2026-05-06 18:28
Airport Pulkovo Airport (ULLI)

Arrival

Time N/A
Airport Nizhny Novgorod / Strigino International Airport (UWGG)
Time Latitude Longitude Altitude Speed Heading
2026-05-06 17:46 59.80188 30.26520 80 ft 0 kts 286°
2026-05-06 18:21 59.80188 30.26521 80 ft 0 kts 286°
2026-05-06 18:22 59.80190 30.26508 80 ft 3 kts 286°
2026-05-06 18:22 59.80204 30.26429 84 ft 8 kts 302°
2026-05-06 18:22 59.80274 30.26428 81 ft 14 kts 18°
2026-05-06 18:22 59.80356 30.26452 83 ft 13 kts
2026-05-06 18:23 59.80434 30.26541 85 ft 14 kts 73°
2026-05-06 18:23 59.80413 30.26744 83 ft 16 kts 107°
2026-05-06 18:23 59.80378 30.26975 83 ft 19 kts 107°
2026-05-06 18:23 59.80339 30.27236 83 ft 21 kts 107°
2026-05-06 18:24 59.80295 30.27531 82 ft 24 kts 106°
2026-05-06 18:24 59.80246 30.27862 81 ft 26 kts 107°
2026-05-06 18:24 59.80209 30.28102 80 ft 28 kts 106°
2026-05-06 18:24 59.80163 30.28414 71 ft 25 kts 107°
2026-05-06 18:25 59.80112 30.28756 73 ft 27 kts 107°
2026-05-06 18:25 59.80056 30.29134 73 ft 30 kts 107°
2026-05-06 18:25 59.79981 30.29632 71 ft 23 kts 107°
2026-05-06 18:25 59.79951 30.29833 73 ft 23 kts 106°
2026-05-06 18:26 59.79943 30.30021 76 ft 14 kts 66°
2026-05-06 18:26 59.79999 30.30156 68 ft 13 kts 47°
2026-05-06 18:26 59.80016 30.30193 74 ft 1 kts 47°
2026-05-06 18:26 59.80028 30.30220 74 ft 6 kts 47°
2026-05-06 18:27 59.80098 30.30268 71 ft 13 kts 334°
2026-05-06 18:27 59.80134 30.30152 68 ft 11 kts 287°
2026-05-06 18:27 59.80186 30.29797 73 ft 56 kts 287°
2026-05-06 18:27 59.80364 30.28624 75 ft 118 kts 286°
2026-05-06 18:28 59.80643 30.26749 82 ft 163 kts 286°
2026-05-06 18:28 59.80972 30.24470 382 ft 179 kts 287°
2026-05-06 18:28 59.81320 30.22080 996 ft 180 kts 287°
2026-05-06 18:28 59.81672 30.19713 1577 ft 177 kts 287°
2026-05-06 18:29 59.82022 30.17367 2100 ft 177 kts 288°
2026-05-06 18:29 59.82389 30.14916 2299 ft 194 kts 288°
2026-05-06 18:29 59.82792 30.12218 2429 ft 214 kts 288°
2026-05-06 18:29 59.83232 30.09255 2700 ft 229 kts 287°
2026-05-06 18:30 59.83685 30.06177 3276 ft 233 kts 288°
2026-05-06 18:30 59.84142 30.03063 3872 ft 235 kts 288°
2026-05-06 18:30 59.84326 29.99827 4453 ft 240 kts 259°
2026-05-06 18:30 59.83529 29.97003 5013 ft 244 kts 221°
2026-05-06 18:31 59.82043 29.95375 5623 ft 245 kts 200°
2026-05-06 18:31 59.80413 29.94414 6287 ft 244 kts 195°
2026-05-06 18:31 59.78757 29.93652 6895 ft 245 kts 194°
2026-05-06 18:31 59.77095 29.92905 7458 ft 246 kts 195°
2026-05-06 18:32 59.75389 29.92541 8005 ft 251 kts 175°
2026-05-06 18:32 59.73742 29.93764 8529 ft 259 kts 147°
2026-05-06 18:32 59.72537 29.96502 8863 ft 274 kts 116°
2026-05-06 18:32 59.71934 30.00135 9296 ft 280 kts 107°
2026-05-06 18:33 59.71389 30.03872 9605 ft 294 kts 107°
2026-05-06 18:33 59.70819 30.07836 10067 ft 304 kts 108°
2026-05-06 18:33 59.70218 30.11983 10275 ft 324 kts 108°
2026-05-06 18:33 59.69690 30.16464 10387 ft 346 kts 98°
2026-05-06 18:34 59.69569 30.21365 10514 ft 366 kts 92°
2026-05-06 18:34 59.69492 30.26533 10728 ft 382 kts 92°
2026-05-06 18:34 59.69402 30.31832 11213 ft 388 kts 94°
2026-05-06 18:34 59.69039 30.37146 11741 ft 391 kts 104°
2026-05-06 18:35 59.68472 30.42444 12295 ft 396 kts 104°
2026-05-06 18:35 59.67898 30.47806 12843 ft 401 kts 104°
2026-05-06 18:35 59.67315 30.53243 13390 ft 406 kts 104°
2026-05-06 18:35 59.66724 30.58738 13911 ft 410 kts 104°
2026-05-06 18:36 59.66120 30.64298 14390 ft 415 kts 104°
2026-05-06 18:36 59.65521 30.69822 14859 ft 419 kts 104°
2026-05-06 18:36 59.64964 30.75515 15326 ft 424 kts 103°
2026-05-06 18:36 59.64474 30.81291 15805 ft 428 kts 102°
2026-05-06 18:37 59.64021 30.87142 16240 ft 432 kts 102°
2026-05-06 18:37 59.63577 30.93022 16699 ft 435 kts 102°
2026-05-06 18:37 59.63117 30.98974 17146 ft 439 kts 102°
2026-05-06 18:37 59.62637 31.04966 17587 ft 442 kts 103°
2026-05-06 18:38 59.62137 31.10986 18033 ft 446 kts 103°
2026-05-06 18:38 59.61619 31.17053 18447 ft 449 kts 103°
2026-05-06 18:38 59.61095 31.23085 18820 ft 452 kts 104°
2026-05-06 18:38 59.60557 31.29234 19204 ft 455 kts 104°
2026-05-06 18:39 59.60017 31.35402 19579 ft 458 kts 104°
2026-05-06 18:39 59.59474 31.41624 19957 ft 461 kts 104°
2026-05-06 18:39 59.58925 31.47898 20324 ft 464 kts 104°
2026-05-06 18:40 59.57808 31.60520 21051 ft 469 kts 104°
2026-05-06 18:40 59.57240 31.66883 21422 ft 473 kts 104°
2026-05-06 18:40 59.56663 31.73300 21717 ft 477 kts 104°
2026-05-06 18:40 59.56079 31.79772 22072 ft 481 kts 104°
2026-05-06 18:41 59.55487 31.86280 22429 ft 484 kts 104°
2026-05-06 18:41 59.54883 31.92828 22783 ft 487 kts 104°
2026-05-06 18:41 59.54251 31.99400 23126 ft 488 kts 108°
2026-05-06 18:41 59.53250 32.05754 23465 ft 484 kts 118°
2026-05-06 18:42 59.51788 32.11685 23758 ft 479 kts 127°
2026-05-06 18:42 59.49918 32.17058 24032 ft 472 kts 136°
2026-05-06 18:42 59.47739 32.21710 24319 ft 467 kts 143°
2026-05-06 18:42 59.45423 32.26207 24621 ft 469 kts 143°
2026-05-06 18:43 59.43097 32.30731 24903 ft 471 kts 143°
2026-05-06 18:43 59.40765 32.35270 25216 ft 473 kts 143°
2026-05-06 18:43 59.38426 32.39819 25513 ft 475 kts 143°
2026-05-06 18:43 59.36073 32.44388 25799 ft 476 kts 143°
2026-05-06 18:44 59.33710 32.48969 26054 ft 478 kts 142°
2026-05-06 18:44 59.31343 32.53550 26385 ft 478 kts 142°
2026-05-06 18:44 59.28974 32.58122 26675 ft 480 kts 142°
2026-05-06 18:44 59.26584 32.62724 26895 ft 482 kts 142°
2026-05-06 18:45 59.24184 32.67327 27148 ft 484 kts 142°
2026-05-06 18:45 59.21770 32.71953 27429 ft 486 kts 142°
2026-05-06 18:45 59.19381 32.76531 27689 ft 488 kts 142°
2026-05-06 18:45 59.16953 32.81182 27960 ft 490 kts 142°
2026-05-06 18:46 59.14523 32.85828 28269 ft 490 kts 142°
2026-05-06 18:46 59.12085 32.90474 28643 ft 489 kts 142°
2026-05-06 18:46 59.10444 32.93592 28885 ft 488 kts 142°